GW1213 Weather Reports


time (UTC)temp
F
wind
direction
speed
knots
gust
knots
rain 1hr
in
rain 24hr
in
rain mn
in
humidity
%
barometer
mb
20260509155034 71 339 2.6 10.4 0.00 0.00 0.00 54 1009.7
20260509154553 71 254 2.6 9.6 0.00 0.00 0.00 54 1009.9
20260509154034 71 211 3.5 9.6 0.00 0.00 0.00 55 1009.8
20260509153537 71 205 2.6 9.6 0.00 0.00 0.00 54 1009.8
20260509153053 71 141 3.5 12.2 0.00 0.00 0.00 53 1010.0
20260509152534 71 94 2.6 12.2 0.00 0.00 0.00 55 1010.0
20260509152037 71 201 3.5 9.6 0.00 0.00 0.00 55 1010.1
20260509151550 70 139 3.5 7.0 0.00 0.00 0.00 56 1010.1
20260509151036 70 217 2.6 8.7 0.00 0.00 0.00 57 1009.9
20260509150539 69 39 2.6 9.6 0.00 0.00 0.00 57 1009.9
20260509150052 69 167 1.7 9.6 0.00 0.00 0.00 57 1009.9
20260509145534 69 239 3.5 9.6 0.00 0.00 0.00 58 1010.1
20260509145034 68 109 1.7 7.8 0.00 0.00 0.00 60 1010.2
20260509144547 68 155 2.6 12.2 0.00 0.00 0.00 59 1010.3
20260509144034 67 285 1.7 12.2 0.00 0.00 0.00 59 1010.4
20260509143535 67 196 3.5 9.6 0.00 0.00 0.00 58 1010.5
20260509143047 67 132 2.6 9.6 0.00 0.00 0.00 60 1010.7
20260509142535 66 153 2.6 8.7 0.00 0.00 0.00 59 1010.7
20260509142034 66 246 1.7 7.8 0.00 0.00 0.00 60 1010.7
20260509141556 66 144 0.9 7.8 0.00 0.00 0.00 62 1010.6
20260509141039 65 313 1.7 7.0 0.00 0.00 0.00 62 1010.7
20260509140534 65 106 2.6 7.0 0.00 0.00 0.00 62 1010.8
20260509140100 65 167 0.9 7.8 0.00 0.00 0.00 63 1010.8
20260509135534 64 344 2.6 7.8 0.00 0.00 0.00 63 1010.8
20260509135036 64 227 1.7 7.0 0.00 0.00 0.00 63 1011.0
20260509134623 64 171 1.7 7.0 0.00 0.00 0.00 63 1011.0
20260509134037 63 328 1.7 7.8 0.00 0.00 0.00 64 1011.0
20260509133537 63 193 1.7 7.8 0.00 0.00 0.00 65 1011.0
20260509133050 63 165 2.6 7.0 0.00 0.00 0.00 65 1011.1
20260509132535 63 168 1.7 7.8 0.00 0.00 0.00 66 1011.1
20260509132038 62 0 1.7 7.8 0.00 0.00 0.00 66 1011.1
20260509131552 62 291 0.9 5.2 0.00 0.00 0.00 67 1011.1
20260509131035 61 250 0.9 4.3 0.00 0.00 0.00 68 1011.1
20260509130535 61 159 0.9 6.1 0.00 0.00 0.00 69 1011.2
20260509130047 61 155 1.7 6.1 0.00 0.00 0.00 69 1011.2
20260509125535 60 180 0.0 9.6 0.00 0.00 0.00 70 1011.2
20260509125036 60 206 2.6 9.6 0.00 0.00 0.00 70 1011.2
20260509124547 59 183 0.9 6.1 0.00 0.00 0.00 71 1011.3
20260509124034 59 200 1.7 4.3 0.00 0.00 0.00 71 1011.3
20260509123534 59 0 0.9 6.1 0.00 0.00 0.00 71 1011.3
20260509123044 59 164 1.7 6.1 0.00 0.00 0.00 72 1011.3
20260509122534 58 181 1.7 6.1 0.00 0.00 0.00 72 1011.2
20260509122035 58 178 0.9 5.2 0.00 0.00 0.00 72 1011.2
20260509121552 58 55 0.0 5.2 0.00 0.00 0.00 73 1011.2
20260509121035 58 161 0.9 6.1 0.00 0.00 0.00 73 1011.3
20260509120538 57 0 0.9 6.1 0.00 0.00 0.00 73 1011.2
20260509120049 57 71 1.7 9.6 0.00 0.00 0.00 73 1011.3
20260509115534 57 0 1.7 9.6 0.00 0.00 0.00 74 1011.4
20260509115037 57 0 2.6 9.6 0.00 0.00 0.00 74 1011.4
20260509114554 57 127 0.9 7.8 0.00 0.00 0.00 74 1011.4
20260509114035 57 167 1.7 7.8 0.00 0.00 0.00 74 1011.4
20260509113535 56 222 0.9 5.2 0.00 0.00 0.00 75 1011.3
20260509113051 55 82 1.7 5.2 0.00 0.00 0.00 76 1011.4
20260509112534 55 183 0.0 7.0 0.00 0.00 0.00 76 1011.4
20260509112034 54 112 0.0 7.0 0.00 0.00 0.00 76 1011.4
20260509111551 54 159 0.0 4.3 0.00 0.00 0.00 77 1011.4
20260509111034 53 134 0.0 3.5 0.00 0.00 0.00 77 1011.4
20260509110538 53 0 0.0 2.6 0.00 0.00 0.00 77 1011.3
20260509110050 53 0 0.0 2.6 0.00 0.00 0.00 77 1011.3
20260509105534 53 0 0.9 2.6 0.00 0.00 0.00 77 1011.2
20260509105034 53 71 0.0 0.0 0.00 0.00 0.00 76 1011.1
20260509104546 53 0 0.0 0.0 0.00 0.00 0.00 76 1011.2
20260509104034 53 0 0.0 0.0 0.00 0.00 0.00 75 1011.1
20260509103535 53 0 0.0 1.7 0.00 0.00 0.00 75 1011.2
20260509103101 53 0 0.0 2.6 0.00 0.00 0.00 75 1011.2
20260509102538 53 0 0.0 2.6 0.00 0.00 0.00 75 1011.2
20260509102038 53 75 0.0 2.6 0.00 0.00 0.00 75 1011.3
20260509101553 53 0 0.0 2.6 0.00 0.00 0.00 75 1011.2
20260509101037 53 0 0.9 2.6 0.00 0.00 0.00 74 1011.1
20260509100540 53 0 0.0 4.3 0.00 0.00 0.00 74 1011.1
20260509100046 53 0 0.0 4.3 0.00 0.00 0.00 73 1011.1
20260509095539 54 71 0.0 4.3 0.00 0.00 0.00 72 1011.0
20260509095038 54 105 0.0 3.5 0.00 0.00 0.00 73 1011.1
20260509094551 54 93 0.9 3.5 0.00 0.00 0.00 73 1011.0
20260509094038 54 90 0.0 3.5 0.00 0.00 0.00 71 1011.1
20260509093538 54 0 0.0 0.0 0.00 0.00 0.00 70 1011.1
20260509093049 54 0 0.0 1.7 0.00 0.00 0.00 71 1011.1
20260509092538 54 0 0.0 3.5 0.00 0.00 0.00 71 1011.2
20260509092038 54 67 0.9 3.5 0.00 0.00 0.00 71 1011.1
20260509091551 55 0 0.0 2.6 0.00 0.00 0.00 71 1011.0
20260509091041 55 127 0.0 2.6 0.00 0.00 0.00 70 1011.1
20260509090538 55 0 0.0 0.0 0.00 0.00 0.00 71 1011.1
20260509090050 55 0 0.0 0.0 0.00 0.00 0.00 68 1011.0
20260509085537 55 0 0.0 0.0 0.00 0.00 0.00 68 1011.1
20260509085038 55 0 0.0 0.0 0.00 0.00 0.00 68 1011.1
20260509084550 55 0 0.0 0.0 0.00 0.00 0.00 68 1011.1
20260509084038 55 0 0.0 0.0 0.00 0.00 0.00 67 1011.1
20260509083539 55 0 0.0 0.9 0.00 0.00 0.00 67 1011.1
20260509083048 56 0 0.0 2.6 0.00 0.00 0.00 66 1011.1
20260509082535 56 0 0.0 2.6 0.00 0.00 0.00 66 1011.2
20260509082038 56 208 0.0 0.9 0.00 0.00 0.00 65 1011.3
20260509081549 56 0 0.0 0.0 0.00 0.00 0.00 65 1011.4
20260509081036 56 0 0.0 0.9 0.00 0.00 0.00 65 1011.5
20260509080538 56 0 0.0 2.6 0.00 0.00 0.00 65 1011.5
20260509080047 56 0 0.0 2.6 0.00 0.00 0.00 65 1011.6
20260509075538 56 0 0.0 1.7 0.00 0.00 0.00 64 1011.6
20260509075038 56 0 0.0 2.6 0.00 0.00 0.00 65 1011.6
20260509074558 56 0 0.0 3.5 0.00 0.00 0.00 64 1011.7
20260509074037 56 0 0.0 3.5 0.00 0.00 0.00 63 1011.7
20260509073538 56 0 0.0 4.3 0.00 0.00 0.00 63 1011.7
20260509073047 56 0 0.0 4.3 0.00 0.00 0.00 63 1011.8
20260509072538 56 218 0.9 3.5 0.00 0.00 0.00 63 1011.8
20260509072039 56 0 0.0 4.3 0.00 0.00 0.00 64 1011.8
20260509071555 56 176 0.9 5.2 0.00 0.00 0.00 64 1011.8
20260509071038 55 202 0.9 5.2 0.00 0.00 0.00 64 1011.8
20260509070538 55 142 0.0 4.3 0.00 0.00 0.00 65 1011.9
20260509070053 54 145 0.9 5.2 0.00 0.00 0.00 66 1011.9
20260509065538 54 0 0.0 5.2 0.00 0.00 0.00 68 1011.9
20260509065035 54 0 0.0 0.0 0.00 0.00 0.00 70 1012.0
20260509064559 54 0 0.0 0.9 0.00 0.00 0.00 72 1012.0
20260509064038 54 0 0.0 3.5 0.00 0.00 0.00 69 1012.1
20260509063538 54 0 0.0 4.3 0.00 0.00 0.00 70 1012.0
20260509063049 54 0 0.0 4.3 0.00 0.00 0.00 70 1012.1
20260509062542 54 0 0.0 0.0 0.00 0.00 0.00 70 1012.1
20260509062042 54 0 0.0 0.0 0.00 0.00 0.00 72 1012.1
20260509061553 54 0 0.0 0.0 0.00 0.00 0.00 71 1012.1
20260509061037 54 0 0.0 0.0 0.00 0.00 0.00 70 1012.1
20260509060538 54 0 0.0 0.0 0.00 0.00 0.00 71 1012.1
20260509060049 54 0 0.0 0.0 0.00 0.00 0.00 70 1012.1
20260509055538 54 0 0.0 0.0 0.00 0.00 0.00 69 1012.1
20260509055038 54 0 0.0 0.0 0.00 0.00 0.00 69 1012.0
20260509054546 54 0 0.0 0.0 0.00 0.00 0.00 69 1012.0
20260509054038 55 0 0.0 0.0 0.00 0.00 0.00 68 1012.0
20260509053536 55 0 0.0 0.0 0.00 0.00 0.00 67 1012.0
20260509053051 55 0 0.0 0.0 0.00 0.00 0.00 67 1011.9
20260509052538 55 0 0.0 0.0 0.00 0.00 0.00 66 1012.0
20260509052037 55 0 0.0 0.0 0.00 0.00 0.00 68 1012.0
20260509051550 55 0 0.0 0.0 0.00 0.00 0.00 66 1012.0
20260509051038 55 0 0.0 0.0 0.00 0.00 0.00 67 1012.0
20260509050538 55 0 0.0 0.0 0.00 0.00 0.00 64 1012.0
20260509050048 55 0 0.0 0.0 0.00 0.00 0.00 63 1012.0
20260509045537 55 0 0.0 0.0 0.00 0.00 0.00 65 1011.9
20260509045037 56 0 0.0 0.0 0.00 0.00 0.00 65 1011.9
20260509044547 56 0 0.0 0.0 0.00 0.00 0.00 65 1011.9
20260509044038 56 0 0.0 0.0 0.00 0.00 0.00 67 1011.9
20260509043538 56 0 0.0 0.0 0.00 0.00 0.00 65 1012.0
20260509043055 56 0 0.0 0.0 0.00 0.00 0.00 65 1011.9
20260509042538 56 0 0.0 0.9 0.00 0.00 0.00 63 1011.9
20260509042035 56 0 0.0 1.7 0.00 0.00 0.00 63 1011.9
20260509041549 56 0 0.0 1.7 0.00 0.00 0.00 63 1012.0
20260509041034 57 0 0.0 0.9 0.00 0.00 0.00 63 1012.0
20260509040537 57 0 0.0 0.9 0.00 0.00 0.00 60 1012.0
20260509040051 57 0 0.0 0.0 0.00 0.00 0.00 62 1012.1
20260509035539 57 0 0.0 0.0 0.00 0.00 0.00 59 1012.2
20260509035035 57 0 0.0 0.0 0.00 0.00 0.00 62 1012.2
20260509034552 57 0 0.0 0.0 0.00 0.00 0.00 61 1012.3
20260509034034 57 0 0.0 0.0 0.00 0.00 0.00 64 1012.3
20260509033534 57 0 0.0 0.0 0.00 0.00 0.00 65 1012.3
20260509033052 58 0 0.0 0.0 0.00 0.00 0.00 61 1012.4
20260509032535 58 0 0.0 0.0 0.00 0.00 0.00 59 1012.3
20260509032034 58 0 0.0 0.0 0.00 0.00 0.00 60 1012.4
20260509031558 58 0 0.0 0.0 0.00 0.00 0.00 58 1012.3
20260509031034 59 0 0.0 0.0 0.00 0.00 0.00 58 1012.4
20260509030534 59 0 0.0 0.0 0.00 0.00 0.00 58 1012.4
20260509030051 59 0 0.0 0.0 0.00 0.00 0.00 57 1012.3
20260509025535 59 0 0.0 0.0 0.00 0.00 0.00 56 1012.2
20260509025035 60 0 0.0 1.7 0.00 0.00 0.00 54 1012.4
20260509024548 60 0 0.0 1.7 0.00 0.00 0.00 52 1012.4
20260509024035 60 0 0.0 0.9 0.00 0.00 0.00 50 1012.4
20260509023534 60 0 0.0 0.9 0.00 0.00 0.00 53 1012.4
20260509023046 60 0 0.0 2.6 0.00 0.00 0.00 53 1012.3
20260509022534 60 0 0.0 3.5 0.00 0.00 0.00 50 1012.3
20260509022035 60 0 0.0 3.5 0.00 0.00 0.00 50 1012.3
20260509021548 60 0 0.0 0.0 0.00 0.00 0.00 50 1012.2
20260509021034 60 0 0.0 0.9 0.00 0.00 0.00 50 1012.2
20260509020534 60 0 0.0 0.9 0.00 0.00 0.00 53 1012.1
20260509020044 61 0 0.0 0.9 0.00 0.00 0.00 55 1012.1
20260509015535 61 0 0.0 0.9 0.00 0.00 0.00 55 1012.1
20260509015040 61 0 0.0 0.0 0.00 0.00 0.00 53 1012.1
20260509014543 61 0 0.0 0.0 0.00 0.00 0.00 56 1012.0
20260509014035 62 0 0.0 0.0 0.00 0.00 0.00 51 1012.0
20260509013535 62 0 0.0 0.0 0.00 0.00 0.00 50 1012.0
20260509013057 62 0 0.0 0.0 0.00 0.00 0.00 52 1012.0
20260509012535 63 0 0.0 0.0 0.00 0.00 0.00 49 1012.0
20260509012035 63 0 0.0 0.0 0.00 0.00 0.00 48 1011.9
20260509011551 64 0 0.0 0.0 0.00 0.00 0.00 47 1011.9
20260509011036 64 0 0.0 1.7 0.00 0.00 0.00 46 1011.8
20260509010534 65 0 0.0 1.7 0.00 0.00 0.00 45 1011.7
20260509010047 65 0 0.0 3.5 0.00 0.00 0.00 42 1011.7
20260509005538 65 0 0.0 3.5 0.00 0.00 0.00 40 1011.7
20260509005035 65 190 0.0 3.5 0.00 0.00 0.00 40 1011.6
20260509004557 66 0 0.0 3.5 0.00 0.00 0.00 40 1011.7
20260509004035 66 0 0.0 2.6 0.00 0.00 0.00 39 1011.7
20260509003535 66 0 0.0 3.5 0.00 0.00 0.00 38 1011.7
20260509003051 67 175 0.0 4.3 0.00 0.00 0.00 38 1011.6
20260509002539 67 0 0.9 4.3 0.00 0.00 0.00 38 1011.5
20260509002035 67 0 0.0 2.6 0.00 0.00 0.00 37 1011.6
20260509001553 67 0 0.0 5.2 0.00 0.00 0.00 37 1011.5
20260509001036 68 0 0.0 5.2 0.00 0.00 0.00 37 1011.4
20260509000536 68 247 0.9 5.2 0.00 0.00 0.00 37 1011.4
20260509000049 68 239 0.0 6.1 0.00 0.00 0.00 36 1011.3
20260508235535 69 171 0.0 6.1 0.00 0.00 0.00 36 1011.2
20260508235037 69 0 0.9 9.6 0.00 0.00 0.00 35 1011.3
20260508234548 69 222 1.7 9.6 0.00 0.00 0.00 36 1011.2
20260508234034 69 180 1.7 9.6 0.00 0.00 0.00 35 1011.2
20260508233538 69 0 1.7 5.2 0.00 0.00 0.00 35 1011.1
20260508233047 70 195 0.9 5.2 0.00 0.00 0.00 35 1011.1
20260508232535 70 231 0.9 7.0 0.00 0.00 0.00 34 1011.1
20260508232035 70 0 1.7 7.0 0.00 0.00 0.00 34 1011.0
20260508231546 70 248 0.9 7.8 0.00 0.00 0.00 34 1011.0
20260508231037 70 0 2.6 7.8 0.00 0.00 0.00 33 1010.9
20260508230535 70 222 3.5 7.8 0.00 0.00 0.00 33 1010.9
20260508230051 70 205 1.7 7.8 0.00 0.00 0.00 33 1010.8
20260508225534 70 246 2.6 7.8 0.00 0.00 0.00 33 1010.8
20260508225034 70 247 1.7 8.7 0.00 0.00 0.00 33 1010.9
20260508224557 71 246 3.5 8.7 0.00 0.00 0.00 33 1010.8
20260508224035 71 148 2.6 7.8 0.00 0.00 0.00 32 1010.8
20260508223535 71 212 2.6 8.7 0.00 0.00 0.00 33 1010.8
20260508223053 71 0 1.7 8.7 0.00 0.00 0.00 33 1010.8
20260508222537 71 199 3.5 10.4 0.00 0.00 0.00 33 1010.8
20260508222036 71 176 1.7 11.3 0.00 0.00 0.00 32 1010.8
20260508221550 71 103 0.9 11.3 0.00 0.00 0.00 33 1010.9
20260508221037 72 172 2.6 8.7 0.00 0.00 0.00 32 1010.9
20260508220534 71 254 1.7 11.3 0.00 0.00 0.00 32 1010.9
20260508220049 72 243 2.6 11.3 0.00 0.00 0.00 32 1011.0
20260508215534 72 261 4.3 10.4 0.00 0.00 0.00 32 1010.9
20260508215037 72 0 1.7 12.2 0.00 0.00 0.00 32 1010.9
20260508214600 72 269 2.6 12.2 0.00 0.00 0.00 32 1010.9
20260508214036 72 86 1.7 7.8 0.00 0.00 0.00 31 1010.9
20260508213533 72 0 0.9 10.4 0.00 0.00 0.00 32 1010.9
20260508213048 72 142 2.6 10.4 0.00 0.00 0.00 31 1011.0
20260508212536 72 136 2.6 10.4 0.00 0.00 0.00 30 1011.2
20260508212037 73 225 3.5 7.8 0.00 0.00 0.00 30 1011.2
20260508211542 73 167 0.9 7.0 0.00 0.00 0.00 31 1011.1
20260508211036 73 258 0.9 7.8 0.00 0.00 0.00 31 1011.2
20260508210534 73 0 3.5 7.8 0.00 0.00 0.00 29 1011.1
20260508210054 73 0 0.9 7.0 0.00 0.00 0.00 30 1011.1
20260508205537 73 221 1.7 7.0 0.00 0.00 0.00 31 1011.2
20260508205038 73 238 1.7 7.8 0.00 0.00 0.00 30 1011.2
20260508204549 73 214 2.6 7.8 0.00 0.00 0.00 30 1011.2
20260508204034 73 213 3.5 7.8 0.00 0.00 0.00 30 1011.3
20260508203537 73 245 1.7 7.8 0.00 0.00 0.00 30 1011.3
20260508203046 73 206 2.6 7.8 0.00 0.00 0.00 29 1011.4
20260508202537 73 257 1.7 7.8 0.00 0.00 0.00 31 1011.4
20260508202034 72 115 2.6 7.0 0.00 0.00 0.00 33 1011.4
20260508201546 72 120 1.7 5.2 0.00 0.00 0.00 34 1011.4
20260508201038 73 234 0.9 7.8 0.00 0.00 0.00 31 1011.6
20260508200533 73 116 2.6 7.8 0.00 0.00 0.00 31 1011.7
20260508200046 73 254 1.7 6.1 0.00 0.00 0.00 30 1011.8
20260508195533 74 277 1.7 6.1 0.00 0.00 0.00 30 1011.8
20260508195034 74 275 1.7 6.1 0.00 0.00 0.00 33 1011.9
20260508194554 74 117 1.7 6.1 0.00 0.00 0.00 33 1011.9
20260508194038 73 0 0.9 7.0 0.00 0.00 0.00 33 1011.9
20260508193533 73 204 0.9 8.7 0.00 0.00 0.00 31 1012.0
20260508193101 73 278 2.6 8.7 0.00 0.00 0.00 32 1012.0
20260508192535 73 149 3.5 7.8 0.00 0.00 0.00 31 1012.2
20260508192040 73 0 2.6 7.0 0.00 0.00 0.00 32 1012.2
20260508191557 73 264 2.6 7.8 0.00 0.00 0.00 30 1012.3
20260508191035 73 206 1.7 8.7 0.00 0.00 0.00 31 1012.4
20260508190535 73 242 2.6 8.7 0.00 0.00 0.00 31 1012.4
20260508190104 73 203 3.5 7.0 0.00 0.00 0.00 32 1012.5
20260508185539 73 186 1.7 6.1 0.00 0.01 0.00 32 1012.6
20260508185034 73 202 1.7 7.8 0.00 0.01 0.00 33 1012.7
20260508184547 73 219 1.7 7.8 0.00 0.01 0.00 32 1012.8
20260508184034 72 205 0.9 6.1 0.00 0.01 0.00 33 1012.9
20260508183534 72 155 0.0 7.0 0.00 0.01 0.00 34 1012.9
20260508183101 72 0 2.6 7.0 0.00 0.01 0.00 33 1013.0
20260508182535 72 242 1.7 6.1 0.00 0.01 0.00 34 1012.9
20260508182036 72 0 0.0 3.5 0.00 0.01 0.00 33 1012.9
20260508181552 71 290 0.9 9.6 0.00 0.01 0.00 35 1013.0
20260508181040 71 263 2.6 9.6 0.00 0.01 0.00 33 1013.2
20260508180535 71 0 0.9 6.1 0.00 0.01 0.00 33 1013.2
20260508180100 71 187 1.7 7.0 0.00 0.01 0.00 35 1013.3
20260508175535 70 232 1.7 7.0 0.00 0.01 0.00 36 1013.3
20260508175036 69 176 2.6 7.0 0.00 0.01 0.00 34 1013.4
20260508174601 70 211 1.7 12.2 0.00 0.01 0.00 34 1013.3
20260508174034 70 248 2.6 12.2 0.00 0.01 0.00 34 1013.5
20260508173535 71 236 2.6 12.2 0.00 0.01 0.00 33 1013.5
20260508173050 70 178 0.9 6.1 0.00 0.01 0.00 36 1013.5
20260508172537 70 0 0.0 8.7 0.00 0.01 0.00 37 1013.5
20260508172039 70 0 1.7 8.7 0.00 0.01 0.00 35 1013.6
20260508171554 70 253 1.7 6.1 0.00 0.01 0.00 34 1013.8
20260508171034 70 0 1.7 5.2 0.00 0.01 0.00 34 1013.8
20260508170536 70 238 0.0 7.0 0.00 0.01 0.00 37 1013.9
20260508170049 69 0 0.0 8.7 0.00 0.01 0.00 38 1013.9
20260508165535 69 190 1.7 8.7 0.00 0.01 0.00 37 1014.1
20260508165035 69 338 0.0 7.0 0.00 0.01 0.00 37 1014.1
20260508164552 68 0 0.9 8.7 0.00 0.01 0.00 37 1014.1
20260508164035 69 169 2.6 8.7 0.00 0.01 0.00 35 1014.2
20260508163537 68 136 1.7 7.0 0.00 0.01 0.00 37 1014.5
20260508163048 68 234 0.9 5.2 0.00 0.01 0.00 39 1014.5
20260508162535 67 91 1.7 5.2 0.00 0.01 0.00 38 1014.5
20260508162036 67 171 1.7 7.0 0.00 0.01 0.00 39 1014.7
20260508161547 68 269 1.7 7.0 0.00 0.01 0.00 37 1014.9
20260508161035 68 273 0.9 7.8 0.00 0.01 0.00 37 1014.9
20260508160536 68 126 1.7 7.8 0.00 0.01 0.00 36 1014.9
20260508160046 67 70 0.0 3.5 0.00 0.01 0.00 39 1015.0
20260508155534 67 32 0.9 6.1 0.00 0.01 0.00 35 1015.0